Tracking 30107 objects as of 18-Jan-2025
HD Live streaming from Space Station
objects crossing your sky now

THOR ABLESTAR DEB

Track THOR ABLESTAR DEB now!
10-day predictions


NORAD ID: 21986
Int'l Code: 1961-015MM
Perigee: 814.1 km
Apogee: 946.5 km
Inclination: 66.9 °
Period: 102.4 minutes
Semi major axis: 7251 km
RCS: 0.0015 m2 (small)
Launch date: June 29, 1961
Source: United States (US)
Launch site: AIR FORCE EASTERN TEST RANGE (AFETR)

Note: This is SATELLITE DEBRIS
Your satellite tracking list
Your tracking list is empty




NASA's NSSDC Master Catalog

Two Line Element Set (TLE):
1 21986U 61015MM  25018.36184119  .00000565  00000-0  37812-3 0  9998
2 21986  66.8773  11.8664 0091326  46.2762  22.2931 14.05974652680847
Source of the keplerian elements: AFSPC